Location: Barrio de Canyet
(41.4665°N, 2.2381°E)
Time: 09:11:15
(UTC+00:00)

Cosmos 1606 Rocket - Pass Details

Date: 09 April 2020
Orbit: 602 x 633 km, 82.5° (Epoch: 03 June)

Event Time Altitude Azimuth Distance (km) Brightness Sun altitude
Rises 19:24:17 0° 193° (SSW) 2,889 6.9 -11.4°
Reaches altitude 10° 19:26:31 10° 195° (SSW) 1,992 6.1 -11.8°
Maximum altitude 19:30:55 68° 279° (W) 678 4.0 -12.5°
Drops below altitude 10° 19:35:23 10° 3° (N) 2,022 6.5 -13.3°
Sets 19:37:39 0° 6° (N) 2,936 7.3 -13.7°
